Orbital Elements at Epoch 2459200.5 (2020-Dec-17.0) TDB
Reference: JPL 35 (heliocentric ecliptic J2000)
Element | Value | Uncertainty (1-sigma) | Units |
e | .0858690314216625 | 8.6866e-09 | |
a | 2.281618427823617 | 6.6279e-09 | au |
q | 2.085698063352587 | 2.2061e-08 | au |
i | 3.910186840543453 | 8.8379e-07 | deg |
node | 232.0502716515242 | 4.9861e-06 | deg |
peri | 68.00823451631362 | 1.2895e-05 | deg |
M | 19.1496604812915 | 1.4029e-05 | deg |
tp | 2459133.539062063520 (2020-Oct-11.03906206) | 4.899e-05 | TDB |
period | 1258.818018245453 3.45 | 5.4851e-06 1.502e-08 | d yr |
n | .2859825604512477 | 1.2461e-09 | deg/d |
Q | 2.477538792294647 | 7.197e-09 | au |
|
| | Orbit Determination Parameters
Additional Information
|